This is the latest recevied weather packets stored in our database for station/object K5FEP. If no packets are shown the sender has not sent any weather packets the latest 10 day(s).
| Time | Temp. | Humidity | Pressure | Rain* | Wind** | Luminosity | Snow |
|---|---|---|---|---|---|---|---|
| 1777236633 | 15.56° C | 67% | 1016.6 hPa | 0 mm | - | 195 W/m² | - |
| 1777236327 | 15.56° C | 67% | 1016.7 hPa | 0 mm | - | 184 W/m² | - |
| 1777236024 | 15.56° C | 66% | 1016.7 hPa | 0 mm | - | 302 W/m² | - |
| 1777235720 | 16.11° C | 66% | 1016.6 hPa | 0 mm | - | 261 W/m² | - |
| 1777235418 | 15.56° C | 65% | 1016.4 hPa | 0 mm | - | 367 W/m² | - |
| 1777235114 | 15.56° C | 65% | 1016.6 hPa | 0 mm | - | 452 W/m² | - |
| 1777234809 | 15.56° C | 65% | 1016.5 hPa | 0 mm | - | 469 W/m² | - |
| 1777234505 | 15.56° C | 68% | 1016.6 hPa | 0 mm | - | 469 W/m² | - |
| 1777234205 | 15.56° C | 66% | 1016.5 hPa | 0 mm | - | 427 W/m² | - |
| 1777233902 | 15.56° C | 67% | 1016.5 hPa | 0 mm | - | 402 W/m² | - |
| 1777233598 | 15° C | 66% | 1016.7 hPa | 0 mm | - | 450 W/m² | - |
| 1777233298 | 15° C | 66% | 1016.7 hPa | 0 mm | - | 432 W/m² | - |
| 1777232994 | 15° C | 67% | 1016.7 hPa | 0 mm | - | 426 W/m² | - |
| 1777232691 | 15° C | 66% | 1017 hPa | 0 mm | - | 438 W/m² | - |
| 1777232389 | 15° C | 66% | 1016.9 hPa | 0 mm | - | 479 W/m² | - |
| 1777232085 | 15° C | 67% | 1016.7 hPa | 0 mm | - | 427 W/m² | - |
| 1777231783 | 15° C | 68% | 1016.7 hPa | 0 mm | - | 453 W/m² | - |
| 1777231479 | 15° C | 69% | 1016.8 hPa | 0 mm | - | 447 W/m² | - |
| 1777231176 | 15° C | 68% | 1016.9 hPa | 0 mm | - | 445 W/m² | - |
| 1777230871 | 14.44° C | 67% | 1017.1 hPa | 0 mm | - | 418 W/m² | - |
| 1777230567 | 15° C | 68% | 1016.9 hPa | 0 mm | - | 406 W/m² | - |
| 1777230263 | 15° C | 68% | 1017 hPa | 0 mm | - | 410 W/m² | - |
| 1777229960 | 15° C | 69% | 1017 hPa | 0 mm | - | 421 W/m² | - |
| 1777229656 | 15° C | 69% | 1017.1 hPa | 0 mm | - | 418 W/m² | - |
| 1777229353 | 15° C | 69% | 1017 hPa | 0 mm | - | 427 W/m² | - |
* Rain latest hour (hover to see other rain measurements)
** Current wind speed in m/s (hover to see current wind gust speed)